This demonstration page uses our WeatherBlox Daily Observations layout. Learn more.

Left ArrowRight Arrow

44.89941, -97.11507

Hourly Observations for November 21, 2019

Temp ( °F °C ) Dew Point ( °F °C ) Humidity (%) Winds ( mph kmh ) Pressure ( in mb ) Visibility ( mi km ) Precip ( " mm )
12:36 am 00:36 Cloudy 33 0.6 31 -0.6 92 92 N 20 31 29.88 1012 10 16 0.00 0.00
12:53 am 00:53 Cloudy 32 0 31 -0.6 96 96 N 24 39 29.85 1011 10 16 0.00 0.00
1:53 am 01:53 Cloudy with Mist and Fog 32 0 31 -0.6 96 96 N 23 37 29.87 1011 6 10 0.00 0.00
2:53 am 02:53 Cloudy 32 0 30 -1.1 92 92 N 28 44 29.89 1012 10 16 0.00 0.00
3:53 am 03:53 Cloudy 30 -1.1 29 -1.7 96 96 N 26 43 29.92 1013 8 13 0.00 0.00
4:53 am 04:53 Cloudy 29 -1.7 26 -3.3 89 89 NNW 21 33 29.95 1014 10 16 0.00 0.00
5:02 am 05:02 Cloudy 29 -1.7 26 -3.3 89 89 NNW 21 33 30.00 1016 10 16 0.00 0.00
5:53 am 05:53 Cloudy 27 -2.8 24 -4.4 89 89 NNW 21 33 29.99 1016 10 16 0.00 0.00
6:53 am 06:53 Cloudy 25 -3.9 23 -5 92 92 NNW 25 41 30.04 1017 10 16 0.00 0.00
7:53 am 07:53 Cloudy 24 -4.4 21 -6.1 88 88 NNW 28 44 30.09 1019 10 16 0.00 0.00
8:04 am 08:04 Cloudy 24 -4.4 22 -5.6 91 91 NNW 21 33 30.15 1021 10 16 0.00 0.00
8:53 am 08:53 Cloudy 24 -4.4 21 -6.1 88 88 NNW 25 41 30.12 1020 10 16 0.00 0.00
9:53 am 09:53 Cloudy 24 -4.4 21 -6.1 88 88 NNW 20 31 30.14 1021 10 16 0.00 0.00
10:53 am 10:53 Cloudy 23 -5 20 -6.7 88 88 NNW 20 31 30.16 1021 10 16 0.00 0.00
11:53 am 11:53 Cloudy with Light Snow 23 -5 20 -6.7 88 88 NNW 16 26 30.16 1021 7 11 0.00 0.00
12:21 pm 12:21 Cloudy 22 -5.6 18 -7.8 85 85 NW 18 30 30.21 1023 10 16 0.00 0.00
12:53 pm 12:53 Cloudy 22 -5.6 17 -8.3 82 82 NNW 18 30 30.16 1021 10 16 0.00 0.00
1:53 pm 13:53 Cloudy 22 -5.6 17 -8.3 82 82 NW 15 24 30.18 1022 10 16 0.00 0.00
2:53 pm 14:53 Cloudy 22 -5.6 16 -8.9 78 78 NW 16 26 30.19 1022 10 16 0.00 0.00
3:53 pm 15:53 Cloudy 23 -5 16 -8.9 74 74 NNW 17 28 30.22 1023 10 16 0.00 0.00
4:13 pm 16:13 Mostly Cloudy 22 -5.6 15 -9.4 75 75 NW 15 24 30.28 1025 10 16 0.00 0.00
4:53 pm 16:53 Mostly Cloudy 21 -6.1 16 -8.9 81 81 NNW 9 15 30.24 1024 10 16 0.00 0.00
5:23 pm 17:23 Mostly Clear 19 -7.2 15 -9.4 84 84 NNW 6 9 30.30 1026 10 16 0.00 0.00
5:53 pm 17:53 Clear 18 -7.8 14 -10 84 84 NW 5 7 30.25 1024 10 16 0.00 0.00
6:53 pm 18:53 Clear 18 -7.8 15 -9.4 88 88 NW 9 15 30.26 1025 10 16 0.00 0.00
7:53 pm 19:53 Clear 17 -8.3 14 -10 88 88 NW 6 9 30.27 1025 10 16 0.00 0.00
8:53 pm 20:53 Clear 17 -8.3 14 -10 88 88 NW 5 7 30.28 1025 10 16 0.00 0.00
9:53 pm 21:53 Clear 17 -8.3 13 -10.6 84 84 NNW 5 7 30.29 1026 10 16 0.00 0.00
10:53 pm 22:53 Clear 16 -8.9 13 -10.6 88 88 NW 5 7 30.29 1026 10 16 0.00 0.00
11:53 pm 23:53 Clear 16 -8.9 14 -10 92 92 Calm 30.29 1026 10 16 0.00 0.00

Powered by AerisWeather